Tracking 19242 objects as of 16-Aug-2018
HD Live streaming from Space Station
objects crossing your sky now

IRIDIUM 59

Track IRIDIUM 59 now!
10-day predictions
IRIDIUM 59 is classified as:


NORAD ID: 25275
Int'l Code: 1998-019D
Perigee: 783.2 km
Apogee: 786.4 km
Inclination: 86.4 °
Period: 100.4 minutes
Semi major axis: 7155 km
RCS: 4.0396 m2 (large)
Launch date: March 30, 1998
Source: United States (US)
Launch site: AIR FORCE WESTERN TEST RANGE (AFWTR)
aabbcc
Your satellite tracking list
Your tracking list is empty




NASA's NSSDC Master Catalog

Two Line Element Set (TLE):
1 25275U 98019D   18227.15937867  .00000131  00000-0  39759-4 0  9996
2 25275  86.3957 110.1993 0002255  86.8340 273.3114 14.34220936 66836
Source of the keplerian elements: AFSPC